2019-037E (44369 NORAD) Tracking and Keplerian Element Data

This shows tracking and keplerian element data for the satellite.

Feedback or suggestion? Click here.




ElementValue
Catalog44369
Name2019-037E
Epoch Orbit328
Epoch Day201.82582839
Epoch Year2019
RAAN169.119
Inclination45.0118
Eccentricity0.0014692
Argument of Perigee23.6184
Mean Anonmoly336.5341
Mean Motion15.39081155
Decay Rate-3.48E-06
L11 44369U 19037E 19201.82582839 -.00000348 00000-0 00000-0 0 9990
L22 44369 45.0118 169.1190 0014692 23.6184 336.5341 15.39081155 3286

Live tracking and technical data element details for 2019-037E (NORAD 44369). 2019-037E can be tracked NOW for your location showing map with azimuth and elevation plus other details from your city location.

Track the satellite on the map from your city or location and see movement details for azimuth, elevation, latitude, longitude, range, height, and movement on the map or in text.







IsCatalogInMostPopularTable: catalog: 44369, numindb: 9
Update: records affected: 1



GetName: 44369 2019-037E

Hit Count: updated at: Sun, 21 Jul 2019 21:37:55 GMT